Notices

What's New in latest Release from April 7th, 2021:

- Updated Glossary, including Speed of Maximum Gust, and Total Hourly Precipitation

- Updated national and regional climate services offices contacts and prices information

- Addition of station inventory lists for 1981-2010, 1971-2000, and 1961-1990 Normals.

If you haven't already, please take our survey and provide feedback about our website: https://eccc.sondage-survey.ca/f/LanguageSelection.aspx?s=442ca660-fcf1-47c0-95a9-59707d6fd709

Hourly Data Report for July 06, 2019

TORONTO CITY
ONTARIO
Current Station Operator: ECCC - MSC

43°40'00.000" N
79°24'00.000" W
112.50 m
6158355
71508
XTO

Download Data

Hourly Data (July 2019)
Hourly Data Report for July 6, 2019
TIME
LST
Temp Definition
°C
Dew Point Definition
°C
Rel Hum Definition
%
Precip. Amount Definition
mm

Wind Dir Definition
10's deg

Wind Spd Definition
km/h
Visibility Definition
km
Stn Press Definition
kPa
Hmdx Definition


Wind Chill Definition


Weather Definition


00:00 25.2 19.2 69 0.0       100.05 32   LegendNANA
01:00 25.0 19.3 71 0.0       100.02 32   LegendNANA
02:00 24.8 19.8 74 0.0       99.98 32   LegendNANA
03:00 24.4 20.0 76 0.0       99.96 32   LegendNANA
04:00 24.1 20.0 78 0.0       99.90 32   LegendNANA
05:00 25.0 19.9 73 0.0       99.94 32   LegendNANA
06:00 25.0 20.6 77 0.0       100.00 33   LegendNANA
07:00 25.8 20.6 73 0.0       100.04 34   LegendNANA
08:00 26.0 19.9 69 0.0       100.03 33   LegendNANA
09:00 27.0 20.7 68 0.0       100.02 35   LegendNANA
10:00 27.5 19.2 61 0.0       100.04 34   LegendNANA
11:00 28.4 18.9 57 0.0       100.00 35   LegendNANA
12:00 27.7 19.9 63 0.0       99.99 35   LegendNANA
13:00 27.9 21.3 67 0.0       99.94 37   LegendNANA
14:00 28.7 20.1 60 0.0       99.86 36   LegendNANA
15:00 27.3 19.3 61 0.0       99.87 34   LegendNANA
16:00 27.3 20.5 66 0.0       99.86 35   LegendNANA
17:00 27.2 20.6 68 0.0       99.85 35   LegendNANA
18:00 26.5 20.4 69 0.0       99.85 34   LegendNANA
19:00 24.3 19.3 74 0.0       99.95 31   LegendNANA
20:00 23.2 19.6 80 0.0       99.97 30   LegendNANA
21:00 23.3 20.1 82 0.0       100.04 31   LegendNANA
22:00 23.8 18.6 73 0.0       100.12 30   LegendNANA
23:00 22.9 17.9 74 0.0       100.15 29   LegendNANA

Notes on Data Quality.

Legend

  • E = Estimated
  • M = Missing
  • NA = Not Available*
  • [empty] = Indicates an unobserved value
Date modified: